Weather History for Moriarty, NM

Change the Weather History Date:

Thursday, January 24, 2013

  Actual Average (KABQ) Record (KABQ)
Temperature  
Mean Temperature 38 °F 37 °F  
Max Temperature 64 °F 48 °F 69 °F (1910)
Min Temperature 13 °F 27 °F 1 °F (1913)
Degree Days  
Heating Degree Days 26 28  
Month to date heating degree days 694  
Since 1 July heating degree days 2451  
Cooling Degree Days 0 0  
Month to date cooling degree days 0  
Year to date cooling degree days 0  
Moisture  
Dew Point 15 °F    
Average Humidity 41    
Maximum Humidity 68    
Minimum Humidity 17    
Precipitation  
Precipitation 0.00 in 0.01 in 0.37 in (2012)
Month to date precipitation 0.29  
Year to date precipitation 0.29  
Snow  
Snow 0.00 in - - ()
Month to date snowfall  
Since 1 July snowfall  
Snow Depth -    
Sea Level Pressure  
Sea Level Pressure 30.28 in    
Wind  
Wind Speed 6 mph (NW)    
Max Wind Speed 20 mph    
Max Gust Speed 28 mph    
Visibility 10 miles    
Events      
T = Trace of Precipitation, MM = Missing Value Source: NWS Daily Summary

Daily Weather History Graph

Daily Weather History Graph

Search for Another Location

Airport:

Trip Planner

Search our weather history database for the weather conditions in past years. The results will help you decide how hot, cold, wet, or windy it might be!

Date:

Astronomy

Jan. 24, 2013 Rise Set
Actual Time 7:07 AM MST 5:25 PM MST
Civil Twilight 6:40 AM MST 5:52 PM MST
Nautical Twilight 6:10 AM MST 6:22 PM MST
Astronomical Twilight 5:40 AM MST 6:52 PM MST
Moon 3:30 PM MST (1/24) 5:05 AM MST (1/24)
Length of Visible Light 11h 11m
Length of Day
10h 17m
Waxing Gibbous, 95% of the Moon is Illuminated
Jan 24
Waxing Gibbous
Jan 26
Full
Feb 3
Last Quarter
Feb 10
New
Feb 17
First Quarter

Hourly Weather History & Observations

Time (MST) Temp. Windchill Dew Point Humidity Pressure Visibility Wind Dir Wind Speed Gust Speed Precip Events Conditions
12:15 AM 22.3 °F - 3.7 °F 45% 30.33 in 10.0 mi Calm Calm - N/A   Clear
12:35 AM 18.1 °F - 1.0 °F 47% 30.32 in 10.0 mi Calm Calm - N/A   Clear
12:55 AM 18.9 °F - 1.9 °F 48% 30.32 in 10.0 mi Calm Calm - N/A   Clear
1:15 AM 19.2 °F - 0.9 °F 45% 30.33 in 10.0 mi Calm Calm - N/A   Clear
1:35 AM 16.3 °F - 0.7 °F 50% 30.33 in 10.0 mi Calm Calm - N/A   Clear
1:55 AM 15.1 °F - -0.0 °F 51% 30.33 in 10.0 mi Calm Calm - N/A   Clear
2:15 AM 13.1 °F 5.4 °F -0.0 °F 56% 30.33 in 10.0 mi NE 4.6 mph - N/A   Clear
2:35 AM 14.9 °F 5.0 °F 0.7 °F 53% 30.33 in 10.0 mi NNE 6.9 mph - N/A   Clear
2:55 AM 15.1 °F 6.4 °F 1.0 °F 54% 30.33 in 10.0 mi NNE 5.8 mph - N/A   Clear
3:15 AM 14.9 °F 6.1 °F 1.4 °F 55% 30.33 in 10.0 mi NNE 5.8 mph - N/A   Clear
3:35 AM 17.2 °F 7.8 °F 3.4 °F 55% 30.33 in 10.0 mi North 6.9 mph - N/A   Clear
3:55 AM 18.1 °F 11.3 °F 3.4 °F 53% 30.33 in 10.0 mi North 4.6 mph - N/A   Clear
4:15 AM 16.2 °F 10.6 °F 2.1 °F 54% 30.34 in 10.0 mi NE 3.5 mph - N/A   Clear
4:35 AM 15.6 °F 8.3 °F 3.2 °F 58% 30.33 in 10.0 mi NNE 4.6 mph - N/A   Clear
4:55 AM 15.6 °F 5.9 °F 3.0 °F 58% 30.32 in 10.0 mi NE 6.9 mph - N/A   Clear
5:15 AM 14.5 °F 4.6 °F 3.0 °F 60% 30.31 in 10.0 mi NE 6.9 mph - N/A   Clear
5:35 AM 15.8 °F 6.1 °F 3.9 °F 60% 30.31 in 10.0 mi North 6.9 mph - N/A   Clear
5:55 AM 15.8 °F 5.1 °F 4.3 °F 60% 30.32 in 10.0 mi NNW 8.1 mph - N/A   Clear
6:15 AM 17.4 °F 12.1 °F 5.9 °F 61% 30.33 in 10.0 mi North 3.5 mph - N/A   Clear
6:35 AM 16.5 °F 11.0 °F 5.5 °F 62% 30.33 in 10.0 mi ENE 3.5 mph - N/A   Clear
6:55 AM 16.3 °F 9.2 °F 5.7 °F 63% 30.33 in 10.0 mi ENE 4.6 mph - N/A   Clear
7:15 AM 16.3 °F 10.8 °F 5.0 °F 61% 30.32 in 10.0 mi NNE 3.5 mph - N/A   Clear
7:35 AM 17.2 °F 10.2 °F 6.1 °F 62% 30.33 in 10.0 mi North 4.6 mph - N/A   Clear
7:55 AM 16.9 °F 6.4 °F 6.1 °F 63% 30.32 in 10.0 mi East 8.1 mph - N/A   Clear
8:15 AM 24.4 °F 18.6 °F 9.1 °F 52% 30.33 in 10.0 mi NE 4.6 mph - N/A   Clear
8:35 AM 33.8 °F 29.6 °F 10.9 °F 39% 30.32 in 10.0 mi NNE 4.6 mph - N/A   Clear
8:55 AM 37.4 °F 34.9 °F 10.9 °F 34% 30.32 in 10.0 mi North 3.5 mph - N/A   Clear
9:15 AM 40.3 °F 38.2 °F 11.3 °F 31% 30.31 in 10.0 mi North 3.5 mph - N/A   Clear
9:35 AM 44.8 °F - 10.9 °F 25% 30.31 in 10.0 mi Calm Calm - N/A   Clear
9:55 AM 48.2 °F - 11.3 °F 23% 30.31 in 10.0 mi Calm Calm - N/A   Clear
10:15 AM 51.3 °F - 11.8 °F 21% 30.31 in 10.0 mi Calm Calm - N/A   Clear
10:35 AM 58.5 °F - 15.1 °F 18% 30.31 in 10.0 mi West 12.7 mph - N/A   Clear
10:55 AM 60.6 °F - 15.8 °F 17% 30.31 in 10.0 mi WNW 13.8 mph - N/A   Clear
11:15 AM 61.0 °F - 15.6 °F 17% 30.31 in 10.0 mi NW 11.5 mph 17.3 mph N/A   Clear
11:35 AM 59.0 °F - 16.7 °F 19% 30.29 in 10.0 mi West 17.3 mph 24.2 mph N/A   Clear
11:55 AM 58.6 °F - 16.7 °F 19% 30.29 in 10.0 mi WNW 13.8 mph 19.6 mph N/A   Clear
12:15 PM 57.6 °F - 16.3 °F 20% 30.27 in 10.0 mi West 12.7 mph 20.7 mph N/A   Clear
12:35 PM 58.1 °F - 16.7 °F 20% 30.27 in 10.0 mi West 16.1 mph - N/A   Clear
12:55 PM 58.6 °F - 17.2 °F 20% 30.25 in 10.0 mi WNW 12.7 mph 19.6 mph N/A   Clear
1:15 PM 60.3 °F - 17.1 °F 19% 30.24 in 10.0 mi West 17.3 mph 23.0 mph N/A   Clear
1:35 PM 62.1 °F - 18.9 °F 19% 30.23 in 10.0 mi West 15.0 mph 25.3 mph N/A   Clear
1:55 PM 62.8 °F - 20.8 °F 20% 30.23 in 10.0 mi West 18.4 mph 23.0 mph N/A   Clear
2:15 PM 64.4 °F - 22.3 °F 20% 30.22 in 10.0 mi West 18.4 mph 24.2 mph N/A   Clear
2:35 PM 64.4 °F - 22.5 °F 20% 30.21 in 10.0 mi West 18.4 mph 21.9 mph N/A   Clear
2:55 PM 63.7 °F - 22.1 °F 20% 30.21 in 10.0 mi West 19.6 mph 23.0 mph N/A   Clear
3:15 PM 62.8 °F - 22.6 °F 22% 30.21 in 10.0 mi WNW 17.3 mph 27.6 mph N/A   Clear
3:35 PM 61.7 °F - 22.1 °F 22% 30.21 in 10.0 mi West 16.1 mph 23.0 mph N/A   Clear
3:55 PM 61.5 °F - 21.9 °F 22% 30.22 in 10.0 mi West 16.1 mph 24.2 mph N/A   Clear
4:15 PM 59.9 °F - 21.0 °F 22% 30.22 in 10.0 mi West 16.1 mph 23.0 mph N/A   Clear
4:35 PM 58.5 °F - 20.3 °F 23% 30.22 in 10.0 mi West 15.0 mph - N/A   Clear
4:55 PM 54.9 °F - 20.3 °F 26% 30.22 in 10.0 mi West 11.5 mph - N/A   Clear
5:15 PM 52.7 °F - 19.4 °F 27% 30.23 in 10.0 mi West 11.5 mph - N/A   Clear
5:35 PM 51.3 °F - 18.9 °F 28% 30.24 in 10.0 mi West 10.4 mph - N/A   Clear
5:55 PM 45.9 °F 41.2 °F 17.6 °F 32% 30.23 in 10.0 mi West 9.2 mph - N/A   Clear
6:15 PM 49.8 °F - 18.3 °F 29% 30.24 in 10.0 mi WNW 6.9 mph - N/A   Clear
6:35 PM 47.7 °F - 17.8 °F 30% 30.24 in 10.0 mi WNW 8.1 mph - N/A   Clear
6:55 PM 46.4 °F 41.5 °F 17.2 °F 31% 30.24 in 10.0 mi WNW 10.4 mph - N/A   Clear
7:15 PM 47.3 °F - 17.2 °F 30% 30.25 in 10.0 mi West 9.2 mph - N/A   Clear
7:35 PM 45.5 °F 44.2 °F 16.5 °F 31% 30.25 in 10.0 mi East 3.5 mph - N/A   Clear
7:55 PM 46.4 °F 45.2 °F 22.6 °F 39% 30.26 in 10.0 mi North 3.5 mph - N/A   Clear
8:15 PM 46.4 °F 41.5 °F 28.2 °F 49% 30.26 in 10.0 mi NW 10.4 mph - N/A   Scattered Clouds
8:35 PM 48.9 °F - 30.9 °F 50% 30.26 in 10.0 mi NNW 11.5 mph 21.9 mph N/A   Mostly Cloudy
8:55 PM 48.9 °F - 31.1 °F 50% 30.26 in 10.0 mi NW 12.7 mph 18.4 mph N/A   Mostly Cloudy
9:15 PM 48.7 °F - 32.0 °F 52% 30.25 in 10.0 mi NW 18.4 mph 24.2 mph N/A   Scattered Clouds
9:35 PM 48.4 °F - 32.5 °F 54% 30.26 in 10.0 mi NW 16.1 mph 24.2 mph N/A   Clear
9:55 PM 47.7 °F - 32.9 °F 57% 30.26 in 10.0 mi NW 12.7 mph 21.9 mph N/A   Clear
10:15 PM 46.8 °F - 33.1 °F 59% 30.27 in 10.0 mi NW 13.8 mph 18.4 mph N/A   Clear
10:35 PM 45.9 °F 39.4 °F 33.3 °F 61% 30.28 in 10.0 mi NW 15.0 mph 19.6 mph N/A   Clear
10:55 PM 45.5 °F 38.9 °F 32.9 °F 61% 30.28 in 10.0 mi WNW 15.0 mph - N/A   Clear
11:15 PM 44.8 °F 38.7 °F 32.0 °F 61% 30.28 in 10.0 mi WNW 12.7 mph - N/A   Clear
11:35 PM 43.3 °F 37.7 °F 32.0 °F 64% 30.27 in 10.0 mi NW 10.4 mph - N/A   Clear
11:55 PM 41.7 °F 36.1 °F 32.0 °F 68% 30.26 in 10.0 mi WNW 9.2 mph - N/A   Clear